Volver al catálogo

SL-14 R/B

ActivoPO
NORAD 16409·ROCKET BODY·🇷🇺 Russia

Lanzado Dec 26, 1985 desde Plesetsk Cosmodrome

Loading…

Próximos Pases (próximas 24 horas)

TLE

ActualizadoSource: Space-Track

Época: Sep 14, 2026, 12:46 UTC

1 16409U 85119B   26257.53238833  .00000031  00000-0  14431-4 0  9992
2 16409  82.5399 191.1954 0013555 262.2926  97.6696 13.84930427 57833

Sigue SL-14 R/B en tiempo real con AllMySat

Download on the App Store